Location: Bidwell Hollow
(37.7387°N, 90.1707°W)
Time: 04:35:42
(UTC+00:00)

Explorer 11/Cluster Stage 4 - Visible Passes

Search period start: 10 May 2026 00:00
Search period end: 20 May 2026 00:00
Orbit: 463 x 1174 km, 28.8° (Epoch: 9 May)

Date Brightness Start Highest point End Pass type
(mag) Time Alt. Az. Time Alt. Az. Time Alt. Az.
10 May 8.3 08:38:13 11° SE 08:38:13 11° SE 08:38:24 10° SE visible
10 May 7.5 10:19:47 10° SW 10:21:51 14° SSW 10:23:49 10° SSE visible
11 May 7.5 09:56:24 14° SSW 09:57:17 15° SSW 09:59:26 10° SSE visible
12 May 7.6 09:33:29 15° S 09:33:29 15° S 09:35:04 10° SSE visible
13 May 8.2 09:10:42 10° SSE 09:10:42 10° SSE 09:10:43 10° SSE visible
15 May 8.7 02:52:42 10° SSW 02:55:09 16° S 02:55:09 16° S visible
16 May 8.4 02:27:29 10° SSW 02:32:32 19° SSE 02:33:03 19° SSE visible
16 May 9.2 04:13:44 10° SW 04:14:19 12° SW 04:14:19 12° SW visible
17 May 8.5 02:02:19 10° SSW 02:07:37 20° SSE 02:10:45 15° SE visible
17 May 8.4 03:48:36 10° SW 03:52:00 24° SSW 03:52:00 24° SSW visible
18 May 8.5 01:37:10 10° SSW 01:42:40 21° SSE 01:47:53 10° ESE visible
18 May 7.8 03:23:28 10° SW 03:29:29 34° S 03:29:29 34° S visible
19 May 7.7 02:58:21 10° SW 03:05:13 36° S 03:06:45 33° SE visible
19 May 8.9 04:46:08 10° WSW 04:47:58 18° WSW 04:47:58 18° WSW visible
